Wind_Speed
40 43 45 47 50 52 55 58 61 64 68 71 73 74 74 75 77 80 82 83 83 84 87 90 94 97 98 97 96 95 94 92 92 91 90 89 87 85 83 81 80 78 77 76 76 76 76 77 77 78 79 81 82 84 85 87 88 90 91 93 94 94 95 96 97 97 98 98 99 100 101 101 102 102 102 102 102 103 105 107 109 111 113 115 116 117
43 46 48 50 51 53 56 60 64 67 71 75 77 78 78 77 78 80 83 85 86 86 88 91 94 99 100 99 98 97 96 94 93 92 90 88 86 84 82 80 79 78 76 75 74 74 74 75 76 76 77 79 80 82 83 85 86 87 89 90 91 93 94 95 96 97 97 97 98 98 99 99 99 100 100 99 99 99 100 102 105 106 108 110 111 112
46 47 49 51 52 54 57 60 65 69 73 76 79 81 83 81 79 79 82 86 89 89 89 91 95 99 100 100 100 99 97 95 93 92 89 87 84 82 80 78 77 76 75 75 74 74 74 75 75 76 77 78 79 80 81 82 84 85 86 88 89 90 92 93 94 95 96 97 97 97 98 97 97 97 97 96 96 96 97 98 100 102 103 104 105 107
47 49 50 51 53 54 57 60 64 69 73 77 80 83 85 86 83 82 83 86 92 94 93 92 95 100 102 101 102 100 98 95 93 91 88 86 83 81 79 77 76 75 75 75 74 74 74 74 75 76 76 77 78 79 80 81 82 83 84 85 87 88 89 90 91 93 93 94 95 96 95 95 95 95 95 94 93 94 94 95 97 98 98 99 101 103
49 50 52 52 54 55 57 60 63 67 72 76 80 84 86 87 87 87 87 88 93 96 97 95 96 100 103 102 102 101 98 95 92 90 88 84 82 79 77 76 75 75 75 75 75 75 75 75 75 75 76 76 77 78 79 80 81 82 82 83 84 85 87 88 88 89 90 91 92 92 92 92 92 91 91 92 92 92 93 93 94 95 96 97 98 100
51 53 53 54 55 57 59 62 64 67 71 75 79 83 86 87 87 89 92 93 95 98 100 99 99 101 104 104 104 102 99 96 93 90 87 83 79 77 76 75 74 74 73 74 74 74 74 75 75 75 76 76 77 78 78 79 80 80 81 81 82 84 85 86 87 87 87 87 88 88 88 87 87 87 87 88 88 89 90 92 92 93 94 95 95 97
53 54 55 56 57 59 62 64 66 68 71 74 78 83 86 87 88 90 95 98 99 101 103 104 104 105 107 106 106 105 101 98 94 90 86 81 77 75 74 73 72 72 72 72 72 73 73 74 74 75 76 77 77 78 78 79 79 80 80 80 81 82 84 84 85 85 85 85 85 85 84 83 83 83 84 85 85 86 87 89 90 91 92 93 93 94
55 56 57 59 60 62 64 65 67 69 72 75 79 84 86 87 88 92 97 100 102 103 105 106 106 108 111 111 110 108 105 101 96 91 86 81 77 74 73 72 72 71 71 70 70 71 71 71 72 72 73 75 76 77 77 78 79 79 80 80 82 82 83 83 83 83 83 82 82 81 81 80 81 81 81 82 83 84 85 86 87 89 90 91 92 93
56 58 59 61 63 65 66 67 68 70 73 77 81 85 87 87 89 94 97 101 103 104 106 109 109 109 112 115 115 113 110 105 100 94 89 83 79 76 75 73 71 70 68 68 67 67 68 68 68 68 69 70 72 73 74 74 75 76 77 78 80 81 82 83 83 82 81 81 80 79 78 78 78 79 79 79 80 82 84 84 84 86 87 88 90 91
57 58 60 63 65 68 68 69 70 72 75 79 82 85 86 87 90 94 97 100 104 107 109 112 115 114 114 117 118 117 114 110 105 99 93 88 83 80 77 74 71 69 68 68 68 68 68 68 68 68 68 68 70 70 70 70 70 71 72 74 76 77 79 80 79 79 79 78 78 78 77 77 77 78 78 77 77 79 80 81 82 83 84 85 87 89
57 58 60 63 66 69 71 72 73 75 77 80 81 81 82 85 89 93 98 102 106 110 113 116 120 121 120 119 120 120 119 115 110 104 97 91 86 81 78 76 74 72 71 71 70 70 69 69 69 69 69 69 70 70 69 68 67 67 68 69 70 71 73 74 73 74 74 74 75 75 75 75 76 76 76 75 75 76 77 78 78 80 82 83 86 88
55 58 60 63 66 69 73 75 76 77 78 80 81 81 80 82 87 93 99 106 112 115 117 119 121 123 124 123 123 124 123 119 114 107 100 93 87 83 80 77 76 75 74 73 72 71 70 70 70 70 69 69 68 68 67 66 65 65 64 64 64 64 66 66 66 67 68 69 70 71 72 73 73 72 72 72 73 74 76 77 78 79 81 83 85 87
55 58 61 63 66 70 73 76 77 79 80 81 83 83 84 85 90 95 101 109 116 119 120 121 122 123 125 126 127 127 126 122 117 111 104 98 92 88 85 83 82 81 79 78 76 75 74 73 73 72 71 70 69 67 66 64 63 63 62 62 62 62 62 62 62 63 64 65 67 68 70 71 71 70 71 72 73 74 76 77 78 80 82 84 85 86
54 57 60 63 67 72 76 78 79 80 82 84 86 89 93 96 99 103 106 110 117 121 122 123 124 125 126 128 129 129 129 126 122 116 110 104 99 96 93 90 88 86 83 81 79 77 76 75 74 72 71 70 69 68 67 65 64 63 62 62 61 61 61 61 60 60 61 62 64 66 67 68 69 70 71 72 73 74 75 77 79 80 82 83 84 84
54 57 61 66 70 75 79 82 84 85 86 88 91 94 98 102 105 108 111 114 119 123 124 124 126 128 128 129 130 131 132 131 127 122 116 111 105 100 97 93 90 88 85 82 79 78 77 76 75 73 70 69 68 68 68 67 66 65 63 62 62 61 60 60 58 58 58 58 60 61 63 64 64 65 67 68 69 70 71 73 75 76 78 78 79 81
57 60 64 69 74 77 81 84 86 88 89 91 93 96 100 103 105 108 112 114 118 124 127 127 127 129 130 130 132 133 134 134 132 128 122 115 108 102 97 93 90 86 83 80 78 76 75 73 72 70 68 67 66 67 67 67 66 65 64 63 62 61 60 59 57 56 55 54 55 56 57 58 58 59 60 61 63 64 64 66 69 70 72 73 74 75
60 63 67 71 75 78 81 84 86 89 91 92 95 97 101 105 107 109 111 112 115 122 128 129 129 130 131 133 134 135 136 137 137 132 126 118 109 102 97 93 90 87 84 81 78 77 75 72 69 67 66 64 62 61 61 62 63 62 62 62 62 61 61 59 57 55 54 52 52 52 52 52 51 52 53 55 58 59 59 61 63 65 67 68 69 69
61 65 68 72 75 78 81 84 87 90 92 94 96 98 101 105 109 113 115 116 117 121 126 130 131 131 133 135 136 137 138 140 139 135 128 120 111 103 98 95 93 90 87 84 82 80 77 73 69 67 66 64 61 59 57 56 57 57 56 56 57 58 58 57 55 54 52 50 49 49 49 48 47 47 48 50 52 55 56 57 59 60 62 63 63 64
61 65 68 71 75 79 82 85 87 90 93 95 97 100 104 107 111 116 120 122 122 123 126 129 131 132 134 136 138 139 141 141 141 138 131 124 116 108 102 98 95 92 89 86 83 81 77 72 68 66 64 63 61 58 56 54 54 53 52 52 52 52 53 54 53 51 49 48 46 46 47 46 45 44 44 45 47 49 50 51 53 55 56 57 57 58
62 65 69 72 75 79 82 84 87 89 91 94 97 101 105 109 112 117 121 124 125 127 129 131 132 132 134 137 140 142 143 143 144 142 136 129 121 113 106 100 96 93 89 85 82 79 76 71 68 65 63 61 58 56 53 52 51 50 50 49 49 48 48 48 48 48 47 46 45 44 44 43 43 42 42 41 41 43 44 45 47 49 50 51 52 53
62 65 69 72 75 78 81 84 85 87 90 93 97 101 104 108 112 114 118 122 125 128 131 134 133 133 134 138 141 144 144 144 145 144 140 133 124 115 108 102 98 94 90 86 82 80 76 72 69 67 64 61 58 55 52 50 48 47 47 46 46 45 44 45 45 45 45 44 43 42 41 40 39 39 38 38 37 37 39 40 42 43 45 46 47 48
61 65 69 72 74 77 81 84 86 88 91 95 98 102 105 109 112 114 116 120 124 126 130 134 135 135 136 139 141 144 145 145 145 145 142 136 127 118 110 105 101 97 93 88 84 82 79 75 71 68 65 61 58 54 51 49 47 45 44 44 43 42 41 42 42 42 42 41 41 40 39 38 37 35 35 35 35 34 35 36 37 39 40 41 42 43
60 64 68 72 75 78 81 83 86 89 92 95 98 102 106 109 113 117 119 121 123 125 126 130 134 136 137 139 141 143 145 146 145 145 143 139 131 123 114 108 103 100 96 91 88 85 81 77 73 70 67 63 60 56 52 49 47 45 43 42 41 39 39 38 38 38 38 38 37 37 36 36 35 34 33 32 32 32 33 34 34 35 36 37 38 39
63 64 66 69 73 76 79 82 86 90 93 96 99 102 106 110 114 118 121 123 124 125 126 128 131 134 135 138 140 142 145 146 146 146 145 142 135 127 118 111 106 102 98 93 90 87 84 79 76 73 71 67 63 59 55 51 48 45 44 42 40 38 36 36 35 34 34 34 34 34 33 33 33 32 32 31 30 31 31 32 32 33 34 35 36 37
68 68 70 70 71 74 77 81 86 90 94 97 100 103 106 109 112 116 120 123 124 127 128 127 129 131 133 136 139 141 143 145 146 146 146 145 140 132 124 115 109 104 100 95 90 88 85 81 78 75 72 68 65 61 58 54 51 47 45 43 41 38 36 34 33 32 31 31 31 31 30 30 30 30 30 30 29 29 29 30 30 31 32 33 34 35
72 74 75 77 78 80 83 86 89 92 96 98 101 104 105 107 111 114 118 122 124 126 129 129 130 130 131 133 136 139 142 144 146 146 147 147 144 139 131 121 113 107 102 96 91 88 86 82 78 74 71 67 64 60 58 55 52 49 46 44 42 40 37 35 33 31 29 28 27 27 27 28 28 27 27 28 28 28 27 27 28 29 30 30 31 32
73 75 78 81 83 86 88 90 92 94 97 99 101 103 105 107 110 113 117 122 124 124 126 129 130 130 130 132 135 139 142 145 147 148 148 148 147 143 136 126 117 110 105 99 93 89 87 83 78 74 71 68 64 60 56 53 51 49 47 45 42 40 38 35 33 31 29 27 26 25 25 25 26 26 26 26 26 26 26 26 26 26 27 28 29 29
71 74 78 81 83 85 87 90 92 94 96 98 100 102 105 107 109 113 116 121 124 124 124 126 128 129 131 133 135 138 142 146 149 150 150 149 148 144 138 130 121 114 108 103 96 90 87 84 80 76 73 69 65 61 57 54 51 49 47 45 43 41 38 36 33 31 29 27 26 25 24 24 24 24 24 25 25 25 24 24 24 25 25 26 26 27
69 72 76 79 82 85 87 89 91 93 95 97 100 102 105 107 109 112 115 119 123 126 127 127 128 130 132 133 135 138 143 148 150 151 151 149 147 146 141 135 127 118 112 107 100 93 88 86 83 78 74 71 67 63 60 57 53 50 47 45 43 41 38 36 34 31 29 27 26 25 24 23 23 23 23 23 23 23 23 22 23 23 23 23 24 24
68 71 74 77 81 83 86 88 90 92 94 96 99 101 104 107 109 111 114 117 122 126 128 128 129 131 133 135 136 139 143 147 149 151 151 150 148 147 145 140 132 124 116 110 105 98 92 89 86 82 77 74 70 66 62 59 56 53 49 46 43 41 38 36 34 32 29 27 26 25 24 22 22 21 21 21 22 22 22 22 21 21 21 21 21 22
67 70 72 76 79 82 84 87 89 92 94 95 97 100 103 106 108 110 114 118 121 125 127 128 128 129 132 136 138 140 142 144 147 149 152 152 151 149 147 143 137 129 120 114 109 104 97 92 89 85 80 76 72 68 64 60 58 55 52 49 45 42 39 37 34 32 30 27 25 24 23 23 21 20 20 20 20 20 21 21 21 21 20 20 19 20
67 69 72 74 77 80 83 86 88 91 93 94 96 99 101 104 107 110 114 118 121 124 127 129 129 129 131 135 138 140 141 143 146 149 152 153 153 150 148 146 141 133 125 118 113 108 101 95 91 87 82 78 74 69 65 62 60 57 55 52 49 45 42 38 35 32 30 28 25 23 23 22 21 20 19 19 19 19 19 20 20 20 20 19 18 18
66 69 71 73 76 79 82 85 88 90 92 94 96 98 101 103 107 110 113 116 120 124 128 130 130 129 130 133 137 139 141 144 147 149 152 154 154 151 149 146 143 138 131 123 116 111 105 99 94 90 85 79 75 70 66 63 61 59 57 55 52 49 45 42 38 34 31 29 27 24 22 21 21 20 20 19 19 18 18 18 18 18 18 18 17 17
66 69 71 74 76 79 81 84 86 88 91 94 97 99 101 104 107 110 113 116 119 123 126 129 129 128 128 131 135 138 141 144 146 149 151 153 154 152 149 146 143 141 136 128 120 114 108 102 96 92 88 82 77 73 68 64 62 60 58 56 53 51 49 46 42 39 36 33 30 27 24 22 20 20 20 20 19 18 17 17 17 17 16 16 16 16
66 69 71 74 76 79 81 83 85 88 92 95 97 99 101 103 105 109 112 115 117 119 123 126 127 128 127 129 133 136 139 142 145 147 149 151 152 152 150 147 144 143 139 133 125 117 112 106 100 95 91 86 80 76 71 66 63 61 59 57 55 52 50 48 45 43 40 37 33 30 27 24 21 20 19 19 19 18 18 17 16 16 15 15 14 14
66 69 71 74 77 79 81 84 87 90 93 94 96 99 101 102 104 106 109 113 116 118 121 124 127 128 128 127 129 133 137 139 142 145 146 148 150 152 151 149 147 145 142 137 130 122 116 110 103 97 93 89 83 78 74 69 65 62 60 58 56 53 50 47 45 43 41 38 35 33 30 27 24 22 20 19 18 18 18 17 16 15 14 14 14 13
66 69 72 74 77 80 82 84 87 89 91 93 96 99 102 104 106 108 111 114 116 118 121 125 128 129 129 127 126 129 133 136 139 142 144 146 148 150 152 152 150 147 144 140 135 128 120 114 108 101 96 92 86 80 76 71 67 64 61 59 56 54 51 48 45 42 40 38 36 34 32 29 27 25 23 21 19 18 18 17 17 15 13 13 12 12
67 70 73 76 78 81 82 84 85 87 90 93 96 99 102 105 108 110 112 114 116 118 121 125 128 129 130 128 126 127 130 133 137 140 143 145 147 149 152 153 152 149 145 142 138 132 125 118 113 106 99 94 89 84 79 75 70 66 62 60 57 55 53 50 47 43 41 38 36 34 32 30 27 26 24 22 20 19 18 17 17 16 14 12 11 11
68 71 74 76 78 81 84 86 88 89 92 94 97 99 101 104 106 108 110 112 115 118 120 123 127 130 131 131 130 129 130 133 137 141 145 147 149 150 151 153 153 150 147 144 140 136 129 122 116 111 104 98 93 88 83 78 73 68 64 61 59 57 54 51 49 45 42 39 36 34 32 30 27 25 23 22 20 19 18 17 16 16 14 13 11 10
69 71 73 76 78 81 83 86 89 91 92 94 96 98 101 103 105 107 108 110 113 116 119 122 126 130 132 133 133 133 134 136 140 144 147 149 151 152 152 152 152 151 148 145 142 137 132 125 119 114 108 102 96 91 85 80 76 71 66 63 60 58 56 53 50 47 44 41 38 35 32 30 28 25 23 22 20 18 17 17 16 15 14 12 11 11
69 71 73 76 78 80 83 85 88 91 92 94 96 98 100 102 104 106 108 111 113 116 119 122 125 129 132 134 135 136 136 138 141 144 147 149 151 152 151 150 151 151 149 146 142 139 134 128 121 115 110 105 99 93 88 82 78 73 69 65 62 59 57 55 52 49 46 43 40 37 34 31 29 26 24 22 21 19 17 17 16 15 14 12 11 11
68 71 74 76 78 80 83 84 86 88 91 93 95 98 100 101 103 106 109 111 113 115 118 121 123 127 131 133 135 136 136 137 140 143 145 148 150 151 150 148 149 151 150 147 144 140 135 131 124 117 112 106 101 95 90 85 79 75 71 67 64 61 58 56 54 51 48 45 42 39 37 34 30 28 26 24 21 19 18 17 16 15 14 12 11 11
69 71 74 77 79 81 83 85 86 89 91 94 95 98 99 101 103 106 108 110 112 114 117 119 122 125 129 132 134 135 135 136 137 140 143 146 148 150 149 147 147 149 150 148 145 141 137 133 127 121 114 109 103 98 92 86 81 77 74 70 66 63 60 58 55 53 50 47 44 42 39 36 33 30 29 26 23 21 20 19 17 16 15 13 11 10
70 72 75 78 81 83 85 88 90 92 94 95 96 97 99 101 103 104 106 108 110 113 115 117 120 123 127 130 132 134 135 135 136 137 141 144 147 149 149 146 144 146 149 149 147 143 139 135 130 124 117 111 106 100 95 89 84 80 75 72 68 64 61 59 57 54 52 49 46 44 41 38 35 33 31 28 25 22 21 20 18 17 15 14 12 11
71 73 76 79 82 85 87 88 89 91 93 94 96 97 99 100 101 103 105 107 109 111 113 116 118 121 124 128 131 133 134 135 135 136 139 142 146 148 148 146 144 144 147 149 148 145 141 136 132 127 121 114 108 103 98 92 87 82 77 73 70 66 63 60 57 55 53 50 48 45 42 39 36 34 32 29 26 24 23 21 20 18 16 15 13 12
71 73 75 78 80 83 85 87 88 90 92 94 95 97 98 99 100 102 104 106 108 110 112 114 117 120 123 126 130 132 133 134 134 135 137 141 144 147 148 146 144 142 144 147 148 146 142 138 134 129 123 117 111 106 101 95 89 84 80 76 72 68 65 61 58 56 53 51 48 46 43 40 37 34 32 29 26 24 23 22 21 19 17 16 14 13
70 72 75 77 79 81 84 86 87 89 92 94 95 97 98 99 100 101 103 105 107 109 111 113 116 119 122 125 128 131 132 133 133 134 136 139 142 145 147 146 144 141 142 144 146 147 144 140 136 131 126 120 114 108 103 98 92 86 82 78 74 71 67 63 60 57 55 52 49 47 44 41 38 35 33 30 27 25 24 24 22 21 19 17 15 14
70 72 74 76 79 81 83 84 86 88 91 93 95 96 97 98 99 100 102 104 106 108 111 113 115 118 121 124 127 130 131 132 132 134 135 137 140 143 146 146 144 141 140 141 144 146 145 142 138 133 128 123 117 111 105 100 95 89 84 80 76 72 69 66 62 59 56 54 51 48 45 42 39 36 33 31 29 28 27 25 23 22 20 17 16 14
70 72 73 76 78 80 82 83 85 87 90 91 93 94 95 96 97 99 100 102 104 107 109 112 115 117 120 122 125 128 130 132 132 133 135 137 139 142 144 146 144 141 139 139 141 145 146 145 141 136 131 126 120 114 108 102 97 92 87 82 78 74 71 67 64 61 58 56 53 50 47 44 41 37 35 33 32 31 30 28 25 23 21 19 17 14
70 72 74 76 78 80 82 83 84 86 89 91 92 93 94 95 96 97 99 101 102 105 107 110 113 116 118 121 123 126 129 131 132 133 134 137 139 141 143 145 145 142 139 138 139 142 146 146 144 140 134 129 123 117 111 105 100 95 90 84 79 76 72 69 66 63 60 57 54 52 49 46 42 40 38 37 35 34 32 30 27 24 21 19 16 14
71 72 75 77 79 81 82 83 84 87 89 91 92 93 94 95 95 96 97 99 101 103 105 108 111 114 117 120 122 124 127 130 131 132 133 136 139 141 142 144 144 142 139 138 138 140 143 146 146 143 138 132 126 120 115 108 102 98 93 87 82 77 74 70 67 64 62 59 56 53 50 47 44 42 40 39 37 34 32 29 27 24 21 18 16 14
Wind_Direction
5 6 6 6 7 7 8 9 10 11 10 8 6 4 2 2 359 356 355 354 355 357 356 354 348 346 348 346 342 340 336 334 331 328 326 323 321 318 315 313 310 308 305 303 300 298 296 293 291 290 288 286 285 283 282 281 280 279 278 278 277 276 275 274 273 272 271 270 269 268 268 267 266 265 264 263 261 260 258 258 257 257 256 256 255 255
8 8 7 7 8 10 12 13 13 14 13 11 9 7 3 3 1 358 356 353 353 356 357 355 350 347 349 347 344 342 339 336 334 331 328 325 323 320 317 315 313 310 308 305 303 300 297 295 293 291 289 287 285 284 283 282 281 280 279 278 278 277 276 275 274 273 272 271 270 269 268 268 267 267 266 265 264 262 261 260 259 258 257 257 256 256
9 9 9 10 11 13 14 15 15 14 13 11 9 8 5 3 3 0 357 353 352 355 357 357 352 348 349 348 345 344 341 339 336 333 330 327 325 322 319 317 314 312 310 307 305 302 300 298 295 293 291 289 287 285 284 282 281 280 279 278 277 277 276 275 275 274 273 273 272 271 270 269 269 268 267 267 266 264 263 262 261 260 259 258 257 257
11 11 11 12 13 14 14 15 16 14 12 10 8 7 5 3 3 1 359 355 353 355 356 358 355 350 350 349 347 346 343 341 338 335 333 330 327 324 322 319 317 314 312 309 307 304 302 300 297 295 293 291 289 287 285 284 282 281 280 279 278 277 276 275 275 274 274 273 273 272 271 271 270 269 269 268 268 266 265 264 263 262 261 259 258 257
11 12 12 13 13 13 14 14 15 14 11 9 7 6 5 4 3 1 360 357 355 356 356 357 357 352 351 350 348 347 345 343 340 338 335 332 329 327 324 321 319 316 314 311 309 307 304 302 300 298 296 294 292 290 288 287 285 283 282 281 280 279 277 276 275 274 273 273 273 272 272 271 271 270 269 269 268 267 266 265 264 263 261 260 258 256
13 14 13 13 13 12 12 13 13 14 12 9 7 6 4 4 3 2 0 358 356 357 357 356 357 355 352 352 350 349 348 345 343 340 338 335 331 328 325 323 320 318 315 313 311 308 306 304 302 300 298 296 294 292 291 289 287 286 285 283 282 280 279 278 277 276 275 274 273 273 272 272 272 271 270 269 269 267 266 266 265 263 262 260 259 257
14 14 14 13 12 12 12 12 12 13 13 11 8 6 5 4 4 3 1 358 356 358 358 357 358 356 354 354 353 351 350 348 346 343 340 337 334 330 327 325 322 319 317 315 312 310 308 306 304 302 300 299 297 295 293 291 290 289 287 285 284 282 280 279 278 277 276 275 275 274 274 274 274 273 272 272 270 269 267 266 265 264 263 262 261 259
15 14 14 12 12 12 11 11 12 13 14 13 9 7 6 5 6 4 2 359 357 358 359 358 358 358 356 355 355 354 352 350 348 345 343 340 336 333 330 328 325 323 320 317 314 311 309 306 304 302 300 298 296 294 293 292 290 289 288 287 285 284 282 281 280 279 278 278 277 277 277 276 276 274 273 272 271 269 267 265 264 263 262 261 261 259
15 13 13 13 12 11 11 10 11 13 14 14 11 9 8 7 7 6 3 360 358 358 0 359 359 359 358 357 356 356 354 352 350 348 345 343 340 337 334 331 328 325 321 318 315 312 309 307 304 302 299 297 295 294 292 291 289 288 287 286 284 284 283 283 283 282 282 282 281 280 279 277 275 273 271 269 267 266 265 264 262 261 260 259 258 257
14 13 12 13 12 11 11 11 11 13 14 14 12 10 9 9 8 7 4 1 359 360 2 1 360 360 360 359 358 357 356 354 353 351 348 346 343 340 337 334 331 328 325 322 320 317 315 312 310 307 304 302 299 297 295 293 291 289 287 286 285 284 284 283 283 283 283 282 280 279 277 275 273 271 269 267 265 264 263 262 262 261 260 258 257 256
12 12 11 12 13 12 11 11 12 12 13 13 12 11 11 11 9 9 7 4 1 2 3 3 1 360 0 0 359 359 358 356 355 353 350 348 345 342 339 337 335 332 330 327 325 322 320 317 314 312 310 307 304 302 300 298 295 293 290 288 286 285 283 283 282 281 280 278 277 275 274 272 270 269 267 266 265 264 262 261 260 259 258 257 257 256
11 12 11 12 13 13 13 13 12 12 13 12 11 10 12 12 11 11 11 8 4 3 4 3 2 1 0 1 1 0 360 358 356 354 352 349 347 344 342 340 338 336 334 331 329 326 323 321 318 316 313 310 308 305 303 301 299 296 294 291 289 287 284 282 281 279 278 277 275 274 272 271 269 268 267 266 264 262 261 259 258 257 256 256 255 255
11 10 11 11 13 14 15 14 13 13 12 12 11 9 9 10 11 11 12 11 7 5 5 4 3 1 1 1 2 1 1 360 358 356 354 351 349 347 346 344 343 341 338 335 333 330 328 325 322 320 317 315 312 310 308 305 303 300 298 295 292 290 287 285 283 280 279 277 276 274 273 272 271 270 268 266 264 262 261 260 259 258 257 256 256 256
12 11 11 12 13 15 15 15 15 14 13 12 11 10 9 9 9 9 10 11 8 5 6 5 3 2 1 2 2 2 2 1 359 358 356 354 352 351 349 347 345 343 341 338 335 333 330 328 325 322 320 318 316 313 311 309 307 304 302 299 296 293 290 288 286 283 281 279 277 276 274 274 273 271 269 268 266 265 264 263 262 260 260 259 259 258
12 12 12 13 14 15 15 15 15 15 14 13 12 11 10 9 9 8 9 10 9 5 5 6 4 3 2 2 2 3 3 2 1 360 358 357 355 353 351 349 347 344 342 339 336 334 332 330 327 325 323 321 318 316 314 312 310 308 305 302 300 297 294 291 289 287 284 281 279 277 276 275 274 272 272 271 269 268 266 266 265 264 263 262 261 260
10 12 12 13 14 15 15 15 15 15 14 14 12 11 10 9 9 9 8 9 9 6 4 5 6 4 2 2 2 3 4 3 3 2 0 358 356 354 352 350 347 345 342 340 338 336 334 332 329 327 325 323 321 318 316 314 312 310 307 305 302 300 297 295 293 291 288 285 282 280 278 276 275 274 273 272 270 269 268 266 265 264 263 262 260 259
9 11 12 13 13 14 14 14 14 14 14 14 12 11 10 8 7 7 8 8 9 8 5 5 6 5 3 2 3 4 4 5 4 3 1 359 357 355 353 350 348 346 344 342 340 338 337 335 332 330 327 324 322 319 316 314 312 310 308 306 304 302 301 299 298 296 293 291 288 285 282 279 276 274 271 269 267 266 264 262 261 260 260 259 259 259
9 11 12 12 12 12 13 13 13 12 12 12 11 9 9 8 6 5 6 7 8 8 7 6 6 6 4 3 3 3 5 5 5 4 2 0 358 356 354 352 350 348 346 344 343 341 340 338 335 333 330 327 325 322 319 315 312 310 308 306 304 303 302 301 301 299 297 295 293 289 287 284 280 276 272 268 265 263 262 261 260 259 259 259 259 259
10 10 11 12 11 11 11 12 12 11 10 9 9 8 8 8 7 5 5 6 7 7 7 7 7 7 5 4 3 3 5 5 5 4 3 1 360 358 356 354 352 350 348 346 344 343 341 340 337 335 333 330 328 326 323 320 316 313 310 308 305 303 302 302 301 300 298 295 293 290 288 287 285 281 277 272 268 266 265 263 262 261 260 260 260 259
11 11 11 11 11 11 10 11 11 10 9 9 9 8 8 7 8 6 5 5 6 6 6 7 8 8 7 5 4 4 4 5 5 5 4 3 1 360 358 356 354 351 349 347 346 344 343 341 340 338 336 334 332 329 327 323 320 317 314 311 309 306 304 302 301 299 296 294 292 290 289 288 287 285 282 277 273 270 268 266 263 262 261 260 259 258
12 11 10 10 10 10 9 9 10 9 9 9 9 9 8 8 8 8 6 4 6 6 6 6 8 8 8 6 5 4 4 5 5 5 5 4 3 1 359 357 355 353 351 349 348 347 346 344 343 341 340 338 336 333 331 327 324 322 319 315 313 310 307 303 300 299 297 295 294 292 290 289 287 285 283 280 276 272 269 266 264 262 261 260 259 258
13 12 10 10 10 10 9 8 8 9 8 8 9 8 8 7 7 8 7 6 6 7 7 6 7 9 9 8 7 5 4 4 5 5 5 5 4 3 1 359 357 355 353 352 351 350 349 348 346 344 342 341 339 337 335 333 330 328 324 321 317 314 311 306 303 301 299 297 295 294 292 290 288 286 283 280 277 274 270 267 264 263 262 260 259 258
13 13 11 10 9 9 9 8 7 8 8 7 7 8 7 7 6 6 7 7 6 7 8 7 7 9 9 9 8 6 5 5 5 5 6 5 5 4 3 1 359 357 355 354 353 352 351 350 348 347 346 344 343 342 340 338 336 334 331 327 324 320 316 312 308 305 302 300 298 296 294 293 290 288 284 280 277 274 271 268 266 264 262 261 260 258
10 12 12 11 10 8 8 8 7 7 7 7 7 7 7 6 6 6 6 7 6 6 8 8 8 9 10 9 8 7 6 5 5 5 6 6 6 5 4 3 1 360 358 356 355 354 353 352 351 350 349 347 346 345 344 343 341 340 336 333 329 326 321 317 313 310 307 304 302 300 298 295 292 289 286 282 278 274 272 270 268 265 263 262 260 259
6 8 9 9 10 9 8 8 8 7 7 7 7 7 7 6 6 5 6 7 6 5 6 8 9 10 10 10 9 8 7 5 5 5 6 7 7 6 6 5 3 2 360 358 356 356 355 354 353 352 351 349 348 347 346 346 345 344 341 338 334 331 327 323 319 316 313 310 307 304 301 297 293 290 287 284 281 277 273 270 268 266 264 262 260 259
3 4 5 6 6 7 7 8 8 8 7 7 6 6 6 5 5 5 6 7 7 6 6 7 8 9 10 11 10 9 7 6 5 6 7 7 7 7 6 6 4 3 2 0 359 358 357 356 355 354 353 351 350 349 349 348 347 346 345 342 338 335 333 329 325 322 318 315 311 306 302 299 295 292 289 286 283 280 276 272 269 266 264 262 260 259
1 1 2 3 4 5 5 5 6 7 6 6 5 5 5 5 5 5 5 6 8 8 7 6 7 8 10 11 11 10 8 7 6 6 7 7 8 8 7 7 6 4 3 2 1 360 359 358 357 356 355 353 352 352 352 351 351 349 348 345 342 340 337 334 331 328 324 320 315 309 304 299 296 294 291 288 285 282 279 275 272 268 265 262 260 259
1 360 0 1 2 3 4 4 4 5 5 5 4 4 4 5 5 5 5 6 7 8 8 7 7 7 9 11 11 11 10 9 7 7 7 7 8 8 8 8 7 6 5 4 3 2 1 359 358 358 358 356 355 354 354 354 354 353 351 349 346 344 341 339 336 333 329 325 320 314 309 304 300 296 293 291 288 285 282 278 275 270 267 264 262 260
1 360 359 360 0 1 2 3 3 3 4 4 3 3 3 4 5 5 5 5 6 7 8 8 7 7 8 10 11 11 11 10 9 8 7 7 8 8 9 8 8 7 6 5 4 3 3 2 1 0 360 358 357 357 357 357 357 357 356 354 351 348 346 343 341 339 336 332 327 321 316 311 306 302 298 295 292 289 285 282 278 274 271 267 264 262
0 360 359 359 359 360 1 1 2 2 3 3 3 2 2 3 4 4 4 5 5 6 6 7 7 7 7 9 10 11 11 11 10 9 8 7 8 8 9 9 9 8 7 6 5 5 4 4 3 2 2 1 359 359 359 359 360 0 360 359 356 353 350 348 346 344 342 338 334 328 323 318 313 308 304 300 296 292 289 285 282 278 274 271 268 265
359 359 359 358 358 358 359 360 0 1 2 2 2 2 1 2 3 3 3 4 5 6 6 7 7 7 7 8 10 11 11 11 10 10 9 8 7 8 9 9 9 9 8 8 7 6 5 5 5 4 3 2 1 0 0 1 1 2 2 2 0 358 356 354 351 349 347 344 340 335 330 325 320 315 310 304 299 295 292 289 286 282 279 276 272 268
357 358 358 358 357 357 358 359 359 0 1 1 1 2 1 1 1 2 3 4 4 5 6 7 7 8 8 8 9 10 10 11 11 10 10 9 8 8 8 9 9 9 9 9 8 7 6 6 6 5 5 4 3 2 2 2 3 4 4 3 2 1 1 359 357 355 353 350 347 343 338 332 328 323 317 310 305 300 297 294 291 288 285 282 278 273
355 356 356 356 357 357 357 357 358 359 359 360 0 1 1 0 1 2 3 3 4 5 6 7 7 8 8 8 9 9 10 11 11 10 10 9 8 8 8 9 10 10 10 9 9 8 8 7 6 6 6 6 5 4 4 5 5 6 6 5 4 3 2 2 2 1 0 358 355 352 347 342 336 331 325 319 313 308 304 300 296 293 290 287 283 278
354 354 355 355 356 356 356 357 357 357 358 359 360 0 1 1 0 1 2 3 3 4 5 6 6 7 7 8 9 9 10 10 10 10 10 10 9 8 8 9 10 11 11 10 9 9 9 8 7 7 7 7 6 5 5 6 7 7 7 7 5 4 3 2 2 3 3 3 2 359 356 352 347 340 334 328 323 318 312 306 301 297 293 289 285 281
354 353 354 354 355 355 355 355 355 356 357 358 359 359 0 1 0 0 1 1 2 3 4 5 6 6 7 8 8 9 9 9 10 10 10 10 9 8 8 8 10 11 11 11 10 10 9 9 8 7 7 7 7 6 6 7 8 9 8 7 7 5 4 3 2 2 2 2 2 2 0 359 357 351 344 337 331 326 320 314 309 305 300 295 290 285
353 353 353 354 354 354 354 354 355 356 357 356 357 358 359 0 0 360 360 1 1 2 3 4 5 6 7 8 8 8 8 8 9 10 10 10 10 9 8 8 9 10 11 11 11 10 10 9 9 8 8 8 8 8 7 7 8 9 9 9 7 6 5 4 2 1 1 0 1 1 1 1 2 0 355 347 340 333 327 323 318 313 308 304 298 292
352 352 352 353 353 353 354 354 355 355 355 355 356 357 358 359 0 360 360 0 1 1 2 3 5 6 6 7 8 8 8 8 9 10 10 11 10 10 9 9 9 10 11 11 11 11 10 10 9 9 9 8 8 8 8 8 9 9 10 10 9 7 5 4 3 2 2 1 0 0 0 0 1 2 359 354 349 342 336 331 327 322 317 312 307 300
350 351 351 352 352 352 352 353 354 354 355 355 356 356 357 358 360 360 359 359 360 0 1 3 4 5 5 6 7 8 9 9 9 10 11 11 11 11 11 10 10 10 10 11 11 11 11 10 9 9 9 9 8 9 9 9 9 9 10 10 9 8 7 5 4 3 3 3 1 0 0 0 0 0 359 357 354 351 346 341 335 331 326 321 315 309
348 349 350 351 351 351 351 351 352 354 355 355 355 356 356 357 359 360 359 358 359 359 0 2 3 3 4 5 6 7 8 9 9 10 11 11 11 11 11 11 10 10 10 11 11 12 11 11 10 9 9 9 9 9 9 9 8 9 10 10 10 9 8 7 5 4 4 4 4 2 1 1 0 0 360 358 357 356 354 351 346 342 337 331 325 318
347 348 349 349 350 351 351 351 351 353 354 355 355 355 355 356 357 358 358 358 358 359 359 1 2 3 3 4 5 6 7 8 8 9 10 11 11 11 11 11 11 10 10 10 11 11 12 11 11 10 9 9 9 9 9 9 8 8 9 10 10 10 9 8 7 5 4 4 5 4 3 1 1 1 1 1 0 0 0 359 355 351 347 343 338 332
345 346 347 348 349 349 350 351 351 351 353 354 354 354 355 355 356 356 357 358 358 358 359 360 1 2 3 3 4 5 5 6 7 8 9 10 11 11 11 11 11 11 10 10 10 11 12 12 12 11 10 9 9 9 9 9 9 8 9 10 11 10 10 9 8 7 5 4 4 4 4 3 3 4 4 4 3 4 4 3 1 357 354 352 350 346
344 345 346 347 348 349 349 350 351 351 351 353 354 354 354 354 355 356 356 357 357 357 358 359 0 1 2 3 3 4 5 6 6 7 8 10 11 11 11 11 11 11 11 10 10 11 11 12 12 12 11 10 9 9 9 9 9 9 9 9 10 11 10 9 8 7 6 5 4 4 5 5 6 7 7 5 5 6 7 6 5 3 1 359 358 354
343 344 345 346 347 348 348 349 350 351 351 352 353 354 354 354 355 355 356 356 356 357 357 358 359 0 1 2 3 3 4 5 6 7 8 9 10 11 11 11 11 12 11 11 10 10 11 12 12 12 12 11 10 9 9 9 10 10 9 9 10 11 11 10 9 8 7 6 5 5 6 7 8 8 8 7 7 8 9 8 7 6 6 6 6 3
342 343 344 345 346 347 348 348 349 351 351 352 352 353 353 353 354 355 355 355 355 356 356 357 358 359 0 1 2 3 3 4 5 6 7 9 10 10 11 11 11 11 12 12 11 10 10 11 12 12 12 12 11 10 9 9 10 10 10 10 10 10 11 11 10 8 7 6 6 6 7 8 8 8 7 7 8 9 9 8 7 7 7 9 11 11
342 343 344 345 346 346 347 348 349 350 350 351 351 352 353 353 353 353 354 354 354 355 356 356 357 358 359 0 1 2 3 3 4 5 7 8 9 10 10 11 11 11 12 12 12 11 10 11 11 12 12 12 12 11 10 10 10 10 10 10 10 10 11 11 11 10 8 7 7 7 8 8 8 8 7 7 8 9 10 9 8 7 7 9 13 15
341 342 343 344 345 346 346 347 348 349 349 350 351 351 352 352 352 353 353 353 353 354 355 355 356 357 358 360 0 1 2 2 3 4 6 7 8 9 10 10 11 11 11 12 12 11 10 10 11 12 12 12 12 11 11 10 10 10 10 10 10 10 11 11 11 11 10 8 7 8 8 8 8 8 8 9 9 10 11 11 10 8 7 9 12 14
340 341 342 344 345 345 346 346 347 348 349 349 350 351 351 351 351 352 352 352 352 353 354 355 355 356 358 359 360 0 1 1 2 3 4 6 7 8 9 9 10 11 11 11 12 12 11 10 10 11 12 12 12 12 12 11 10 10 11 11 10 10 10 11 12 12 11 10 9 8 9 9 9 9 10 11 12 13 14 14 12 10 10 12 14 15
339 341 342 343 344 345 346 346 347 347 348 349 349 350 350 350 350 350 351 351 351 352 353 354 355 356 357 358 359 359 360 0 1 2 3 5 6 7 8 9 9 10 11 11 11 12 12 11 10 10 11 12 12 13 12 11 11 11 11 11 11 10 10 10 11 12 11 11 10 9 9 9 9 10 12 13 15 16 18 17 14 12 12 14 16 16
338 340 341 342 343 344 345 346 346 347 347 348 348 348 349 350 350 350 350 350 351 351 352 353 353 355 356 357 357 358 359 359 0 1 3 4 5 7 7 8 8 9 10 11 11 12 12 12 11 10 11 11 12 12 13 12 11 11 11 11 11 11 10 10 11 11 12 11 11 10 10 9 9 10 12 15 16 17 17 16 14 12 11 12 14 15
337 339 340 342 343 344 344 345 346 346 346 347 347 348 348 349 349 349 349 349 350 351 351 352 352 353 355 356 356 357 358 359 360 1 2 3 4 6 7 7 8 9 9 10 11 11 12 12 11 11 10 11 11 12 12 12 12 12 11 11 12 12 11 11 11 11 11 12 11 10 10 9 8 9 12 15 16 16 14 13 11 10 9 9 10 11
336 338 340 341 342 343 344 344 345 345 346 346 346 347 347 348 348 348 348 348 349 350 351 351 352 353 354 355 355 356 357 358 359 0 1 2 3 5 6 7 7 8 9 10 10 11 11 12 12 11 11 10 10 11 12 12 12 12 11 11 12 12 12 12 11 11 11 12 11 11 10 9 9 10 12 14 14 14 12 10 9 8 7 7 8 11
Height
10647 10642 10638 10633 10628 10622 10616 10610 10604 10599 10593 10587 10581 10574 10569 10563 10553 10544 10538 10531 10527 10524 10515 10503 10485 10470 10464 10451 10436 10423 10409 10395 10381 10367 10354 10341 10329 10318 10309 10300 10293 10286 10279 10273 10266 10260 10253 10247 10241 10235 10229 10223 10217 10212 10206 10201 10196 10191 10187 10183 10179 10176 10173 10171 10170 10168 10166 10165 10163 10162 10161 10160 10159 10159 10160 10162 10164 10166 10168 10169 10170 10171 10172 10174 10176 10179
10644 10640 10635 10630 10625 10619 10613 10607 10601 10595 10590 10584 10578 10572 10565 10560 10552 10541 10533 10525 10521 10519 10511 10500 10481 10464 10455 10443 10429 10415 10399 10385 10370 10355 10343 10330 10318 10307 10296 10287 10278 10271 10264 10258 10252 10245 10239 10233 10227 10221 10215 10209 10204 10198 10193 10187 10182 10177 10173 10169 10164 10161 10157 10154 10151 10149 10147 10146 10145 10144 10143 10142 10142 10142 10142 10144 10146 10148 10150 10152 10153 10154 10155 10156 10159 10162
10642 10638 10633 10628 10623 10617 10611 10604 10598 10591 10586 10581 10574 10568 10560 10555 10551 10543 10533 10521 10513 10511 10506 10496 10478 10460 10451 10437 10421 10408 10392 10376 10362 10347 10333 10320 10308 10296 10286 10276 10267 10259 10251 10244 10237 10231 10224 10218 10212 10206 10200 10194 10189 10184 10178 10173 10168 10163 10159 10155 10151 10146 10143 10139 10135 10133 10130 10128 10127 10126 10126 10126 10126 10127 10126 10128 10130 10131 10133 10135 10135 10136 10138 10140 10142 10145
10640 10636 10631 10626 10621 10615 10609 10603 10596 10588 10581 10576 10569 10563 10555 10547 10542 10539 10532 10520 10507 10500 10496 10492 10476 10454 10443 10432 10415 10401 10386 10370 10354 10338 10324 10310 10297 10286 10275 10265 10255 10247 10239 10231 10223 10217 10210 10204 10197 10190 10184 10179 10173 10168 10163 10157 10153 10149 10144 10140 10137 10133 10129 10125 10121 10118 10115 10112 10110 10108 10109 10110 10110 10111 10111 10112 10113 10115 10116 10118 10118 10119 10121 10123 10126 10128
10638 10634 10629 10624 10618 10613 10607 10600 10594 10587 10578 10571 10564 10558 10552 10544 10535 10528 10523 10516 10505 10495 10486 10483 10474 10454 10437 10426 10412 10397 10381 10365 10348 10332 10316 10302 10289 10277 10265 10255 10245 10236 10227 10219 10211 10203 10196 10189 10183 10176 10170 10164 10158 10152 10147 10142 10137 10133 10129 10125 10122 10118 10114 10110 10106 10104 10101 10098 10095 10093 10093 10093 10094 10095 10097 10097 10098 10099 10099 10100 10101 10101 10102 10104 10106 10108
10636 10631 10626 10621 10616 10610 10604 10598 10591 10585 10577 10570 10563 10556 10548 10541 10533 10522 10513 10506 10498 10490 10478 10469 10464 10450 10434 10419 10404 10389 10374 10357 10341 10325 10310 10296 10283 10270 10259 10248 10238 10228 10219 10209 10200 10192 10184 10176 10169 10162 10155 10149 10143 10137 10132 10127 10122 10118 10114 10110 10106 10102 10097 10093 10090 10088 10086 10084 10081 10079 10079 10079 10079 10081 10082 10082 10083 10084 10084 10083 10083 10083 10083 10084 10087 10089
10633 10629 10624 10618 10613 10607 10601 10595 10588 10582 10576 10570 10561 10554 10545 10536 10528 10518 10507 10496 10487 10479 10469 10459 10450 10438 10425 10413 10396 10380 10365 10349 10333 10318 10304 10290 10277 10264 10252 10242 10231 10221 10211 10201 10192 10183 10174 10166 10158 10150 10143 10136 10129 10123 10117 10112 10106 10102 10098 10095 10090 10085 10080 10077 10074 10072 10070 10068 10067 10065 10065 10066 10066 10067 10068 10068 10067 10069 10069 10068 10067 10067 10067 10067 10068 10071
10631 10626 10621 10615 10610 10604 10598 10593 10587 10581 10574 10567 10558 10550 10542 10533 10524 10514 10502 10490 10481 10475 10466 10454 10445 10430 10411 10398 10385 10369 10354 10340 10325 10310 10296 10283 10270 10257 10245 10234 10222 10212 10202 10192 10184 10174 10165 10157 10149 10142 10134 10125 10118 10111 10105 10100 10094 10088 10084 10079 10074 10069 10064 10060 10058 10056 10055 10053 10053 10052 10052 10053 10054 10053 10054 10054 10052 10051 10051 10051 10051 10051 10051 10051 10050 10051
10629 10623 10618 10613 10607 10602 10597 10591 10585 10578 10570 10563 10555 10546 10538 10529 10521 10511 10501 10490 10480 10472 10463 10449 10437 10427 10408 10387 10371 10357 10342 10328 10314 10299 10285 10272 10259 10246 10235 10224 10214 10204 10194 10185 10176 10166 10157 10148 10140 10132 10125 10117 10108 10101 10096 10090 10084 10078 10073 10067 10061 10056 10051 10046 10043 10041 10040 10039 10038 10038 10038 10038 10038 10036 10037 10038 10037 10034 10033 10033 10034 10034 10034 10035 10033 10033
10625 10621 10616 10611 10605 10598 10593 10587 10580 10573 10566 10559 10552 10545 10537 10529 10521 10514 10504 10492 10478 10466 10454 10438 10421 10410 10398 10381 10362 10347 10332 10316 10301 10286 10271 10258 10246 10235 10224 10214 10204 10194 10183 10173 10163 10153 10143 10134 10126 10118 10111 10103 10095 10088 10083 10078 10073 10067 10062 10056 10050 10046 10040 10035 10033 10030 10028 10026 10024 10023 10022 10022 10021 10019 10018 10020 10020 10019 10017 10017 10017 10016 10016 10018 10017 10016
10623 10619 10614 10609 10603 10596 10589 10582 10575 10568 10561 10556 10551 10548 10541 10533 10525 10517 10505 10488 10472 10457 10441 10424 10406 10389 10380 10370 10356 10338 10320 10302 10287 10274 10261 10249 10237 10225 10214 10203 10192 10181 10170 10160 10150 10140 10130 10121 10112 10104 10096 10089 10081 10073 10067 10063 10059 10054 10048 10043 10039 10035 10028 10024 10022 10018 10015 10013 10011 10009 10008 10007 10005 10004 10003 10004 10004 10003 10002 10002 10002 10001 10000 10001 10000 9999
10623 10618 10612 10607 10602 10596 10587 10578 10570 10563 10557 10551 10546 10543 10540 10537 10529 10517 10503 10482 10460 10443 10429 10417 10403 10387 10371 10359 10345 10329 10312 10296 10281 10267 10254 10241 10229 10217 10205 10192 10180 10169 10158 10148 10138 10128 10118 10109 10100 10091 10083 10075 10068 10060 10054 10049 10044 10039 10034 10029 10025 10021 10016 10012 10010 10006 10003 10001 9998 9996 9994 9992 9991 9991 9991 9991 9990 9989 9987 9988 9989 9987 9986 9985 9984 9984
10621 10615 10611 10606 10600 10594 10586 10579 10570 10562 10555 10548 10541 10534 10528 10523 10514 10501 10490 10475 10453 10436 10424 10412 10400 10386 10368 10352 10336 10322 10308 10292 10276 10260 10245 10231 10217 10203 10190 10177 10165 10154 10143 10133 10123 10114 10104 10095 10086 10077 10068 10060 10053 10046 10039 10034 10029 10024 10020 10015 10011 10007 10002 9999 9997 9993 9991 9989 9985 9983 9980 9978 9978 9979 9978 9978 9977 9976 9976 9976 9976 9975 9974 9973 9972 9972
10621 10615 10609 10603 10596 10589 10582 10575 10568 10559 10550 10540 10530 10520 10507 10494 10485 10477 10470 10462 10447 10432 10421 10409 10394 10380 10365 10348 10333 10318 10302 10286 10268 10251 10235 10218 10201 10187 10174 10163 10152 10142 10131 10121 10111 10102 10092 10083 10074 10066 10058 10049 10041 10034 10027 10021 10015 10010 10006 10002 9998 9994 9989 9986 9984 9981 9979 9977 9973 9970 9968 9966 9966 9965 9964 9964 9964 9965 9964 9964 9963 9962 9961 9962 9963 9963
10619 10613 10606 10598 10590 10582 10574 10565 10558 10549 10540 10530 10520 10509 10498 10486 10475 10465 10454 10446 10436 10422 10412 10403 10388 10372 10358 10343 10329 10314 10296 10279 10261 10242 10223 10207 10192 10179 10167 10156 10145 10134 10124 10114 10104 10094 10084 10073 10064 10055 10047 10039 10031 10023 10015 10009 10003 9997 9993 9988 9983 9980 9976 9972 9971 9969 9966 9964 9961 9959 9957 9955 9954 9953 9952 9952 9951 9952 9952 9951 9950 9949 9949 9950 9951 9952
10612 10606 10599 10591 10583 10575 10568 10560 10552 10544 10536 10526 10516 10505 10497 10489 10481 10471 10459 10448 10437 10420 10405 10396 10384 10367 10354 10340 10324 10308 10291 10272 10253 10234 10217 10204 10192 10179 10166 10154 10143 10132 10121 10111 10100 10090 10080 10069 10058 10048 10040 10032 10023 10014 10005 9997 9991 9985 9980 9974 9970 9966 9962 9959 9957 9956 9954 9952 9950 9948 9946 9945 9944 9943 9942 9940 9938 9938 9940 9939 9937 9936 9936 9936 9937 9938
10607 10601 10593 10585 10578 10571 10564 10556 10548 10540 10532 10523 10515 10506 10496 10484 10474 10470 10465 10455 10444 10426 10402 10385 10376 10364 10349 10333 10316 10300 10285 10267 10247 10231 10217 10205 10192 10179 10166 10152 10139 10127 10115 10104 10093 10083 10072 10062 10052 10042 10034 10026 10019 10011 10002 9992 9984 9977 9970 9964 9959 9954 9950 9947 9945 9943 9941 9940 9938 9936 9934 9933 9933 9932 9931 9929 9926 9924 9925 9924 9923 9922 9922 9923 9925 9926
10604 10597 10590 10582 10575 10567 10559 10551 10543 10535 10527 10520 10513 10505 10495 10485 10471 10459 10451 10442 10433 10423 10405 10385 10370 10357 10340 10324 10310 10295 10278 10261 10247 10233 10219 10204 10190 10177 10162 10146 10131 10116 10103 10092 10081 10072 10062 10053 10043 10034 10025 10017 10010 10003 9996 9987 9979 9972 9965 9958 9952 9946 9941 9938 9935 9933 9931 9929 9927 9924 9921 9920 9920 9920 9918 9917 9914 9912 9912 9913 9913 9912 9912 9914 9915 9917
10603 10595 10588 10581 10573 10563 10554 10546 10539 10530 10523 10515 10507 10498 10488 10479 10466 10449 10434 10424 10414 10408 10403 10389 10369 10352 10336 10321 10305 10288 10270 10257 10246 10233 10216 10199 10183 10168 10154 10139 10124 10111 10098 10086 10075 10065 10055 10047 10038 10029 10019 10010 10001 9994 9986 9979 9971 9964 9958 9952 9947 9941 9936 9932 9928 9925 9922 9920 9918 9914 9911 9910 9909 9909 9907 9906 9905 9904 9905 9906 9906 9905 9905 9906 9908 9909
10602 10594 10586 10578 10569 10561 10553 10545 10538 10531 10525 10517 10507 10497 10484 10471 10459 10444 10428 10418 10409 10398 10388 10378 10364 10349 10334 10318 10300 10282 10267 10253 10239 10224 10209 10193 10176 10160 10148 10136 10122 10108 10096 10084 10073 10062 10051 10041 10031 10022 10014 10005 9997 9988 9980 9972 9965 9958 9951 9946 9940 9936 9931 9927 9922 9919 9915 9912 9910 9908 9905 9903 9901 9899 9898 9898 9898 9898 9898 9898 9898 9898 9898 9899 9900 9901
10601 10593 10585 10577 10569 10561 10553 10545 10539 10532 10524 10516 10505 10495 10485 10475 10465 10454 10438 10422 10409 10395 10377 10365 10358 10347 10332 10314 10296 10281 10267 10253 10237 10221 10207 10193 10178 10163 10148 10134 10120 10106 10093 10080 10069 10057 10045 10034 10024 10015 10006 9999 9991 9983 9975 9967 9960 9953 9946 9940 9934 9930 9925 9920 9915 9912 9909 9906 9903 9901 9899 9897 9895 9893 9892 9891 9891 9891 9891 9890 9890 9891 9891 9891 9892 9893
10601 10593 10585 10577 10570 10561 10551 10542 10536 10529 10519 10509 10500 10490 10480 10471 10462 10455 10446 10429 10412 10399 10383 10365 10351 10338 10325 10311 10297 10283 10270 10255 10240 10225 10209 10193 10178 10162 10146 10130 10115 10101 10088 10075 10063 10051 10039 10028 10018 10009 10001 9993 9985 9977 9969 9962 9955 9948 9941 9935 9929 9924 9919 9914 9910 9906 9903 9900 9897 9895 9893 9891 9890 9888 9887 9886 9885 9884 9884 9884 9884 9884 9885 9885 9886 9886
10600 10593 10585 10576 10567 10558 10551 10543 10535 10526 10517 10507 10497 10486 10476 10465 10454 10444 10436 10425 10413 10404 10394 10376 10354 10335 10322 10310 10299 10285 10270 10256 10242 10227 10211 10193 10174 10158 10143 10129 10113 10098 10083 10069 10056 10044 10033 10022 10013 10003 9994 9985 9977 9971 9964 9956 9949 9943 9936 9930 9924 9919 9914 9909 9905 9901 9898 9895 9892 9890 9888 9886 9884 9882 9881 9880 9880 9879 9878 9878 9878 9879 9879 9879 9880 9881
10597 10593 10587 10580 10572 10563 10556 10547 10535 10523 10514 10504 10494 10483 10472 10461 10450 10438 10427 10418 10408 10397 10389 10378 10360 10343 10329 10316 10302 10287 10272 10257 10241 10225 10208 10191 10174 10158 10142 10127 10112 10097 10081 10066 10053 10040 10028 10017 10006 9995 9986 9977 9969 9962 9956 9950 9944 9937 9931 9925 9920 9915 9910 9905 9901 9898 9894 9891 9888 9886 9883 9881 9879 9877 9876 9875 9874 9874 9873 9873 9873 9874 9874 9874 9875 9875
10589 10585 10581 10577 10573 10567 10558 10548 10537 10524 10511 10500 10489 10479 10470 10460 10451 10441 10431 10421 10408 10392 10381 10374 10363 10349 10335 10322 10307 10292 10277 10261 10243 10224 10205 10187 10171 10154 10139 10124 10110 10096 10081 10066 10052 10039 10026 10014 10003 9993 9983 9974 9965 9956 9949 9943 9937 9932 9926 9920 9915 9910 9906 9902 9898 9894 9891 9888 9885 9882 9879 9876 9874 9873 9871 9870 9869 9869 9869 9869 9869 9869 9869 9869 9870 9870
10583 10577 10571 10565 10558 10551 10543 10534 10526 10517 10506 10497 10487 10478 10471 10464 10454 10443 10432 10421 10410 10393 10376 10364 10357 10348 10338 10328 10315 10298 10280 10263 10245 10226 10206 10187 10168 10149 10133 10119 10106 10093 10081 10067 10052 10038 10026 10014 10004 9994 9984 9975 9965 9956 9947 9939 9932 9927 9922 9916 9911 9906 9902 9898 9895 9891 9888 9885 9882 9878 9875 9872 9870 9869 9867 9866 9865 9864 9864 9864 9864 9864 9864 9865 9865 9865
10581 10573 10565 10558 10550 10542 10534 10526 10518 10511 10503 10495 10487 10480 10473 10465 10454 10443 10432 10421 10411 10400 10384 10367 10354 10345 10336 10324 10311 10297 10279 10260 10240 10222 10203 10185 10167 10150 10134 10119 10106 10093 10079 10066 10053 10039 10026 10014 10004 9994 9984 9974 9965 9956 9948 9939 9932 9925 9919 9913 9908 9903 9899 9895 9891 9888 9885 9881 9878 9875 9872 9869 9867 9865 9864 9862 9861 9860 9860 9860 9860 9860 9860 9860 9861 9861
10581 10572 10564 10556 10549 10542 10535 10527 10518 10510 10503 10495 10487 10480 10472 10463 10453 10442 10431 10419 10409 10402 10393 10378 10360 10345 10330 10315 10303 10291 10276 10255 10234 10216 10200 10185 10170 10156 10141 10125 10110 10095 10080 10066 10053 10041 10028 10015 10003 9992 9982 9972 9963 9954 9946 9938 9931 9924 9917 9912 9906 9901 9896 9892 9889 9885 9882 9878 9875 9872 9869 9867 9865 9863 9861 9859 9858 9857 9857 9856 9856 9856 9856 9856 9856 9857
10582 10574 10565 10557 10549 10542 10534 10528 10520 10512 10504 10496 10487 10479 10470 10461 10452 10442 10431 10422 10410 10396 10384 10373 10359 10340 10323 10312 10301 10286 10268 10249 10232 10217 10204 10192 10178 10161 10143 10125 10109 10094 10080 10066 10054 10042 10029 10015 10002 9991 9981 9971 9961 9952 9943 9935 9929 9923 9917 9911 9905 9900 9895 9890 9887 9883 9880 9877 9873 9870 9867 9865 9863 9861 9859 9857 9855 9854 9853 9853 9852 9852 9852 9853 9853 9853
10583 10575 10567 10559 10550 10543 10535 10529 10522 10514 10505 10496 10488 10480 10470 10460 10450 10441 10433 10422 10407 10391 10378 10368 10355 10338 10322 10309 10295 10278 10264 10253 10242 10226 10209 10193 10176 10158 10140 10124 10108 10093 10079 10066 10052 10039 10027 10014 10001 9989 9979 9969 9959 9950 9942 9934 9927 9920 9915 9910 9904 9899 9894 9889 9885 9882 9879 9875 9872 9868 9865 9863 9861 9859 9857 9855 9853 9851 9850 9849 9849 9849 9849 9849 9849 9850
10583 10576 10569 10560 10552 10545 10537 10529 10522 10514 10505 10498 10491 10482 10470 10460 10451 10443 10432 10418 10405 10395 10383 10369 10355 10342 10326 10306 10287 10276 10268 10259 10246 10229 10210 10188 10170 10154 10140 10124 10109 10094 10080 10065 10051 10037 10025 10013 10002 9990 9979 9969 9959 9950 9942 9934 9926 9919 9913 9908 9903 9898 9893 9889 9884 9881 9877 9874 9871 9867 9863 9861 9858 9856 9854 9852 9851 9849 9847 9846 9846 9845 9845 9846 9846 9847
10582 10576 10569 10562 10554 10545 10537 10530 10522 10514 10506 10500 10492 10482 10472 10462 10452 10440 10426 10413 10404 10396 10383 10368 10353 10339 10322 10304 10290 10280 10270 10256 10239 10223 10207 10189 10171 10155 10140 10125 10110 10096 10081 10066 10051 10038 10026 10015 10004 9992 9981 9971 9962 9952 9943 9934 9926 9918 9912 9906 9901 9897 9893 9888 9884 9880 9877 9873 9870 9866 9863 9859 9856 9854 9852 9850 9848 9847 9845 9844 9844 9843 9843 9843 9844 9844
10581 10575 10569 10563 10554 10546 10537 10528 10520 10513 10508 10501 10491 10482 10473 10461 10449 10438 10428 10416 10402 10387 10373 10362 10349 10336 10323 10310 10296 10279 10262 10246 10230 10216 10203 10190 10176 10160 10144 10130 10114 10097 10080 10066 10054 10041 10029 10017 10006 9995 9984 9974 9965 9955 9946 9936 9927 9919 9913 9907 9901 9896 9892 9888 9884 9880 9876 9873 9869 9866 9862 9859 9855 9852 9850 9848 9846 9845 9843 9842 9841 9841 9841 9841 9841 9841
10579 10573 10567 10560 10553 10546 10538 10530 10523 10516 10509 10499 10488 10479 10470 10458 10445 10433 10423 10413 10401 10388 10377 10366 10355 10344 10332 10315 10296 10277 10259 10244 10231 10218 10203 10189 10178 10166 10153 10138 10121 10102 10084 10068 10055 10043 10031 10019 10007 9996 9986 9975 9965 9956 9947 9938 9930 9922 9914 9908 9902 9897 9892 9887 9883 9879 9875 9872 9869 9865 9862 9859 9856 9852 9849 9846 9844 9842 9841 9840 9839 9838 9838 9838 9838 9838
10578 10571 10565 10558 10551 10544 10537 10530 10524 10515 10503 10493 10486 10478 10467 10457 10445 10432 10420 10412 10404 10395 10385 10375 10363 10350 10335 10317 10299 10283 10268 10254 10240 10226 10211 10197 10184 10171 10158 10141 10123 10105 10089 10074 10058 10045 10032 10021 10010 9998 9987 9977 9967 9957 9948 9940 9931 9923 9916 9909 9903 9898 9893 9888 9883 9879 9875 9871 9868 9865 9862 9859 9856 9852 9849 9846 9843 9840 9839 9838 9837 9836 9836 9835 9835 9835
10576 10569 10562 10556 10549 10542 10534 10525 10514 10505 10497 10491 10484 10476 10468 10459 10450 10439 10428 10416 10405 10395 10386 10376 10363 10349 10335 10323 10309 10294 10280 10267 10253 10238 10224 10210 10193 10174 10157 10139 10120 10104 10089 10075 10060 10046 10033 10022 10012 10001 9989 9979 9969 9959 9950 9941 9933 9925 9917 9911 9905 9899 9894 9889 9885 9880 9876 9872 9868 9864 9861 9858 9855 9852 9849 9846 9843 9840 9837 9836 9835 9835 9834 9833 9833 9833
10573 10566 10559 10553 10546 10539 10532 10524 10515 10506 10499 10491 10481 10471 10462 10452 10442 10431 10420 10410 10400 10391 10381 10369 10357 10346 10337 10329 10319 10306 10292 10279 10266 10252 10237 10220 10200 10179 10156 10135 10119 10105 10091 10076 10061 10047 10033 10022 10011 10002 9991 9981 9971 9962 9952 9943 9935 9927 9920 9913 9907 9901 9896 9891 9886 9882 9877 9873 9868 9865 9861 9858 9855 9852 9849 9846 9843 9840 9837 9835 9834 9833 9832 9832 9831 9831
10569 10562 10556 10549 10542 10535 10528 10523 10517 10509 10499 10488 10477 10467 10455 10445 10435 10423 10412 10403 10396 10386 10375 10363 10353 10344 10335 10326 10319 10310 10298 10284 10269 10253 10235 10217 10199 10180 10158 10137 10120 10106 10092 10078 10064 10049 10035 10023 10011 10002 9993 9983 9972 9962 9953 9944 9936 9929 9922 9915 9909 9903 9898 9893 9888 9883 9878 9874 9870 9865 9862 9858 9855 9852 9849 9846 9843 9841 9838 9835 9833 9832 9831 9831 9830 9829
10566 10560 10553 10546 10539 10532 10524 10515 10508 10501 10493 10483 10474 10464 10454 10444 10435 10426 10417 10406 10395 10384 10375 10364 10353 10342 10330 10318 10307 10297 10288 10277 10261 10242 10224 10206 10189 10172 10156 10142 10127 10111 10095 10080 10067 10054 10040 10026 10013 10002 9992 9982 9972 9962 9953 9945 9938 9930 9923 9917 9910 9904 9899 9894 9889 9884 9879 9875 9871 9867 9863 9860 9856 9853 9850 9847 9844 9841 9838 9836 9834 9832 9831 9830 9829 9828
10564 10558 10552 10545 10538 10531 10523 10514 10504 10495 10488 10480 10471 10463 10453 10442 10433 10428 10422 10411 10397 10386 10375 10363 10350 10338 10326 10313 10300 10286 10273 10259 10245 10230 10215 10200 10185 10170 10156 10143 10129 10114 10099 10085 10072 10059 10046 10032 10018 10005 9994 9983 9974 9965 9956 9947 9940 9932 9925 9918 9912 9905 9899 9894 9890 9885 9880 9876 9872 9868 9864 9861 9857 9854 9850 9847 9844 9842 9839 9837 9835 9833 9831 9830 9829 9828
10562 10556 10551 10544 10537 10530 10522 10514 10504 10494 10486 10479 10471 10461 10452 10443 10433 10424 10415 10405 10395 10383 10371 10359 10347 10335 10322 10309 10296 10283 10268 10252 10238 10226 10214 10202 10190 10177 10163 10148 10132 10117 10103 10090 10078 10064 10051 10038 10024 10012 10000 9989 9978 9969 9959 9951 9943 9935 9927 9920 9913 9907 9901 9896 9891 9886 9881 9877 9873 9869 9865 9862 9858 9854 9851 9848 9845 9842 9840 9838 9836 9834 9832 9830 9829 9828
10561 10555 10548 10542 10535 10528 10521 10514 10507 10498 10488 10479 10469 10459 10450 10441 10432 10419 10407 10399 10391 10380 10368 10358 10348 10336 10323 10310 10297 10284 10271 10257 10242 10230 10218 10206 10193 10181 10169 10155 10139 10124 10109 10096 10082 10069 10057 10044 10030 10017 10006 9994 9983 9973 9963 9954 9946 9938 9930 9922 9915 9909 9903 9897 9892 9887 9883 9878 9874 9870 9866 9862 9859 9855 9852 9849 9846 9843 9841 9838 9836 9835 9833 9831 9830 9828
10557 10552 10546 10539 10532 10525 10517 10511 10504 10495 10485 10475 10466 10458 10449 10438 10428 10418 10407 10398 10389 10379 10369 10359 10349 10338 10327 10315 10302 10289 10276 10263 10250 10237 10224 10211 10197 10185 10172 10159 10146 10131 10116 10101 10087 10074 10061 10048 10035 10022 10010 9999 9988 9977 9968 9958 9949 9940 9932 9925 9917 9911 9905 9899 9893 9889 9884 9879 9875 9871 9866 9862 9859 9856 9853 9850 9847 9844 9842 9839 9837 9835 9833 9832 9830 9829
10553 10547 10541 10533 10526 10519 10511 10502 10493 10485 10477 10470 10463 10455 10447 10437 10427 10418 10409 10400 10390 10381 10370 10360 10349 10338 10328 10316 10305 10292 10279 10266 10255 10243 10230 10217 10203 10189 10177 10165 10152 10138 10121 10106 10092 10079 10065 10052 10040 10027 10015 10003 9992 9981 9971 9961 9951 9943 9935 9928 9920 9914 9907 9901 9895 9890 9885 9881 9876 9872 9867 9863 9860 9857 9854 9851 9848 9845 9843 9840 9838 9836 9834 9832 9831 9830
10550 10543 10537 10530 10521 10513 10506 10499 10492 10485 10478 10470 10462 10454 10445 10436 10427 10417 10408 10399 10390 10381 10371 10361 10351 10340 10329 10317 10305 10293 10281 10269 10258 10246 10233 10219 10205 10192 10180 10168 10155 10141 10126 10112 10097 10083 10070 10057 10044 10032 10019 10007 9996 9985 9975 9964 9955 9946 9938 9931 9923 9917 9910 9904 9898 9892 9887 9882 9878 9873 9869 9865 9862 9858 9855 9852 9849 9846 9844 9841 9839 9837 9835 9834 9832 9831
10548 10542 10535 10529 10523 10514 10506 10499 10491 10484 10476 10467 10459 10452 10443 10435 10426 10417 10407 10397 10388 10380 10371 10362 10351 10341 10330 10319 10307 10295 10283 10272 10260 10248 10236 10221 10207 10195 10183 10171 10158 10145 10132 10118 10103 10089 10075 10061 10049 10037 10025 10012 10001 9990 9979 9969 9959 9950 9941 9933 9926 9919 9913 9907 9900 9895 9890 9885 9880 9875 9871 9867 9864 9860 9857 9854 9851 9848 9845 9843 9841 9839 9837 9835 9833 9832
10547 10541 10534 10527 10521 10515 10506 10498 10489 10481 10473 10465 10457 10449 10441 10432 10424 10415 10406 10396 10387 10378 10370 10361 10351 10340 10329 10318 10306 10295 10285 10275 10263 10251 10238 10225 10212 10199 10186 10174 10161 10148 10135 10122 10109 10095 10081 10067 10054 10042 10030 10018 10006 9995 9984 9974 9964 9954 9945 9936 9928 9921 9915 9909 9903 9897 9892 9887 9882 9877 9873 9869 9866 9862 9859 9856 9853 9850 9847 9845 9842 9841 9839 9837 9835 9834
10545 10539 10533 10525 10519 10512 10505 10497 10489 10480 10472 10464 10456 10447 10440 10432 10423 10414 10405 10396 10386 10376 10367 10358 10349 10339 10328 10318 10307 10297 10287 10277 10265 10252 10240 10228 10216 10203 10190 10177 10165 10153 10140 10127 10113 10100 10086 10072 10058 10046 10034 10023 10011 10000 9989 9979 9969 9959 9949 9940 9932 9925 9918 9911 9905 9900 9894 9889 9884 9880 9875 9871 9868 9864 9861 9857 9854 9851 9849 9846 9845 9843 9841 9839 9837 9836
10542 10536 10530 10523 10516 10510 10503 10496 10488 10480 10472 10464 10457 10449 10441 10432 10424 10414 10405 10396 10386 10376 10365 10356 10347 10339 10329 10319 10309 10299 10289 10277 10265 10253 10241 10230 10219 10207 10194 10180 10168 10156 10144 10131 10118 10104 10089 10075 10062 10049 10038 10026 10015 10004 9993 9983 9973 9963 9954 9945 9936 9928 9921 9914 9908 9902 9896 9891 9886 9882 9877 9873 9870 9866 9863 9859 9855 9852 9850 9848 9846 9845 9843 9841 9840 9838
10538 10532 10526 10520 10513 10506 10499 10492 10485 10478 10471 10463 10455 10448 10440 10432 10424 10415 10406 10396 10386 10377 10367 10357 10347 10338 10329 10320 10310 10301 10290 10278 10266 10254 10242 10230 10219 10208 10197 10184 10171 10159 10147 10135 10122 10108 10093 10080 10066 10053 10041 10029 10019 10008 9997 9987 9977 9967 9958 9950 9941 9932 9924 9917 9910 9904 9899 9893 9888 9884 9879 9875 9872 9868 9864 9860 9857 9854 9852 9850 9848 9846 9845 9843 9842 9840
10534 10528 10522 10515 10508 10501 10495 10488 10482 10475 10467 10460 10452 10445 10438 10430 10422 10414 10405 10395 10386 10377 10368 10358 10349 10339 10329 10320 10311 10300 10289 10278 10266 10255 10243 10230 10219 10207 10197 10187 10175 10163 10150 10138 10126 10113 10100 10086 10073 10059 10046 10034 10023 10012 10002 9991 9981 9971 9962 9954 9945 9937 9929 9921 9914 9908 9902 9896 9891 9887 9882 9878 9874 9869 9865 9862 9859 9857 9855 9853 9851 9849 9847 9845 9844 9842